Terminal Aerodrome Forecast
Issued by NWS

Home | Current Version | Previous Version | Text Only | Print | Product List | Glossary On
Versions: 1 2 3 4 5 6 7 8 9 10 11 12 13 14 15 16 17 18 19 20 21 22 23 24 25 26 27 28 29 30 31 32 33 34 35 36 37 38 39 40 41 42 43 44 45 46 47 48 49 50
000
FTAK31 PANC 060420 AAA
TAFASN
TAF AMD
PASN 060420Z 0604/0624 24012KT P6SM SCT025 OVC035
      TEMPO 0604/0606 BKN025
     FM060600 18018G26KT P6SM BKN015
     FM060800 18025G35KT 4SM -RA BR OVC006
     FM061200 21018G26KT 5SM -SHRA BR OVC004
     FM062000 23018G26KT P6SM VCSH SCT015 BKN025=

USA.gov is the U.S. government's official web portal to all federal, state and local government web resources and services.